N9XP-9 Weather Reports


time (UTC)temp
C
wind
direction
speed
KPH
gust
KPH
rain 1hr
cm
rain 24hr
cm
rain mn
cm
humidity
%
barometer
mb
20260506084538 3 351 0.0 0.0 0.00 0.13 0.00 76 1012.3
20260506083037 3 351 0.0 0.0 0.00 0.13 0.00 74 1012.0
20260506081530 4 352 0.0 0.0 0.00 0.13 0.00 68 1012.0
20260506073017 7 343 0.0 3.2 0.00 0.13 0.00 56 1011.9
20260506071516 7 4 1.6 8.0 0.00 0.13 0.00 55 1011.6
20260506061505 8 13 1.6 9.7 0.00 0.13 0.00 52 1011.6
20260506044552 10 353 0.0 6.4 0.00 0.13 0.13 47 1010.7
20260506043049 10 341 1.6 6.4 0.00 0.13 0.13 46 1010.9
20260506041554 10 342 0.0 4.8 0.00 0.13 0.13 46 1011.1
20260506040047 10 352 1.6 4.8 0.00 0.13 0.13 47 1011.1
20260506034552 10 341 0.0 6.4 0.00 0.13 0.13 51 1010.7
20260506033049 9 106 0.0 1.6 0.00 0.13 0.13 56 1010.9
20260506031542 9 118 0.0 0.0 0.00 0.13 0.13 53 1010.4
20260506030041 9 120 0.0 0.0 0.00 0.13 0.13 55 1010.5
20260506024542 10 117 0.0 0.0 0.00 0.13 0.13 51 1010.3
20260506023041 10 118 0.0 0.0 0.00 0.13 0.13 51 1010.4
20260506021547 10 118 0.0 0.0 0.00 0.13 0.13 50 1009.9
20260506020037 10 124 0.0 3.2 0.00 0.13 0.13 51 1010.0
20260506014536 10 340 0.0 1.6 0.00 0.13 0.13 49 1009.5
20260506013041 10 339 0.0 1.6 0.00 0.13 0.13 49 1009.6
20260506011558 11 319 0.0 1.6 0.00 0.13 0.13 48 1009.1
20260506010033 11 257 0.0 1.6 0.00 0.13 0.13 47 1009.2
20260506004541 11 349 0.0 3.2 0.00 0.13 0.13 44 1008.9
20260506003033 11 278 0.0 1.6 0.00 0.13 0.13 43 1008.7
20260506001532 11 41 0.0 4.8 0.00 0.13 0.13 42 1008.6
20260506000031 12 26 0.0 3.2 0.00 0.13 0.13 42 1008.8
20260505234531 12 335 0.0 3.2 0.00 0.28 0.13 41 1008.6
20260505233034 12 336 0.0 3.2 0.00 0.28 0.13 40 1008.8
20260505231538 12 5 1.6 8.0 0.00 0.28 0.13 38 1008.8
20260505230031 12 170 0.0 3.2 0.00 0.28 0.13 38 1008.8
20260505224528 12 15 1.6 6.4 0.00 0.28 0.13 38 1008.9
20260505223028 12 119 1.6 9.7 0.00 0.28 0.13 37 1009.0
20260505221529 13 322 1.6 6.4 0.00 0.28 0.13 36 1008.9
20260505220046 12 352 0.0 8.0 0.00 0.28 0.13 38 1009.0
20260505214532 12 316 1.6 8.0 0.00 0.28 0.13 36 1009.2
20260505213026 12 350 0.0 12.9 0.00 0.28 0.13 36 1009.1
20260505211529 12 181 1.6 8.0 0.00 0.28 0.13 34 1009.1
20260505210024 12 9 1.6 14.5 0.00 0.28 0.13 35 1009.1
20260505204525 13 354 1.6 8.0 0.00 0.28 0.13 36 1009.1
20260505203023 12 197 1.6 6.4 0.00 0.28 0.13 35 1009.2
20260505201522 13 11 0.0 11.3 0.00 0.28 0.13 37 1009.4
20260505200021 13 257 1.6 6.4 0.00 0.28 0.13 36 1009.4
20260505194523 13 260 1.6 6.4 0.00 0.28 0.13 36 1009.3
20260505193032 13 212 1.6 8.0 0.00 0.28 0.13 34 1009.2
20260505191523 13 15 1.6 6.4 0.00 0.28 0.13 34 1009.5
20260505190018 13 231 1.6 9.7 0.00 0.28 0.13 37 1009.6
20260505184519 13 201 3.2 9.7 0.00 0.28 0.13 36 1009.6
20260505183022 13 208 1.6 8.0 0.00 0.28 0.13 39 1009.6
20260505181516 13 198 1.6 6.4 0.00 0.28 0.13 38 1009.5
20260505180016 13 317 1.6 11.3 0.00 0.28 0.13 38 1009.4
20260505174514 13 16 3.2 9.7 0.00 0.28 0.13 37 1009.4
20260505173014 13 325 6.4 12.9 0.00 0.28 0.13 37 1009.2
20260505171513 13 312 1.6 9.7 0.00 0.28 0.13 39 1009.1
20260505170012 13 307 4.8 12.9 0.00 0.28 0.13 36 1009.0
20260505164512 13 336 4.8 12.9 0.00 0.28 0.13 36 1008.7
20260505163011 13 193 1.6 8.0 0.00 0.28 0.13 39 1009.3
20260505161511 12 323 3.2 9.7 0.00 0.28 0.13 42 1009.0
20260505153007 11 56 0.0 4.8 0.00 0.28 0.13 50 1008.7
20260505151508 10 79 0.0 11.3 0.00 0.28 0.13 51 1008.6
20260505140108 8 142 0.0 4.8 0.00 0.28 0.13 76 1009.2
20260505124559 6 157 0.0 0.0 0.13 0.28 0.13 86 1009.0
20260505123057 7 157 0.0 1.6 0.08 0.23 0.08 83 1009.1
20260505121549 7 173 0.0 0.0 0.08 0.23 0.08 77 1008.8
20260505120059 7 179 0.0 1.6 0.05 0.20 0.05 76 1009.3
20260505114540 8 342 1.6 6.4 0.00 0.15 0.00 67 1008.6
20260505113038 9 2 0.0 4.8 0.00 0.15 0.00 58 1007.9
20260505111533 9 354 3.2 11.3 0.00 0.15 0.00 56 1007.2
20260505101524 10 338 0.0 4.8 0.00 0.15 0.00 58 1005.8
20260505100024 10 4 0.0 4.8 0.00 0.15 0.00 56 1005.9
20260505094519 10 339 1.6 8.0 0.00 0.15 0.00 54 1006.1
20260505093016 11 340 1.6 12.9 0.00 0.15 0.00 51 1006.1
20260505091514 11 4 3.2 12.9 0.00 0.15 0.00 50 1006.4
20260505090009 12 309 4.8 16.1 0.00 0.15 0.00 53 1005.6